Vorticity
4 3 4 3 4 4 4 4 4 4 4 4 4 4 4 4 2 5 2 5 11 9 10 9 7 5 5 11 4 11 10 8 -3 -13 90 10 1 5 -3 5 3 -0 9 3 8
5 5 4 4 4 4 4 4 4 4 4 4 4 4 4 4 6 3 15 14 5 6 9 13 10 8 13 7 1 7 9 7 -10 15 33 11 7 9 -2 1 1 4 5 -1 7
4 4 4 4 4 4 4 4 4 5 4 4 4 3 4 3 3 17 4 -1 3 2 6 6 15 11 8 12 2 2 6 1 2 4 3 8 8 7 13 -1 3 1 3 3 5
5 5 4 4 4 5 4 5 4 4 4 4 4 4 3 3 9 -3 -5 1 6 10 12 13 8 12 10 7 8 -2 10 4 -6 10 4 9 16 5 1 14 14 3 13 8 1
5 5 5 5 5 5 6 5 5 4 4 5 4 5 3 4 3 7 8 6 8 9 9 12 11 14 13 11 1 4 27 8 -11 17 1 -9 27 3 6 1 -1 12 6 7 11
6 5 6 5 6 5 5 6 5 5 4 5 5 4 5 5 9 7 3 7 9 10 9 12 7 3 2 7 -3 2 -7 18 -9 17 12 2 -14 26 -2 5 -0 3 8 -4 -3
5 9 6 6 7 6 6 5 5 6 4 6 5 6 4 8 4 6 6 4 8 10 11 14 -1 7 10 13 14 6 13 -4 10 -2 10 24 -1 4 8 8 5 9 -1 -6 -4
16 -3 20 9 6 7 5 5 6 4 6 6 7 6 5 2 5 7 9 15 11 13 10 12 6 5 8 16 -9 6 19 7 5 -4 -5 -0 3 -5 -2 4 -2 -9 -3 1 6
8 8 4 1 7 15 16 17 10 6 7 5 6 5 16 22 11 6 7 21 12 9 10 15 14 14 17 7 12 20 2 3 11 20 19 6 0 18 10 8 3 2 5 12 11
-4 11 -23 -6 -6 14 4 -0 -1 14 14 4 5 10 33 42 30 28 20 8 12 10 9 12 12 14 13 17 -12 2 11 9 2 8 21 14 3 3 2 12 15 9 2 4 0
19 20 24 37 51 22 18 12 25 9 13 7 -16 -6 -1 -12 7 5 1 6 5 -2 4 11 2 2 18 15 9 6 11 10 17 6 9 48 39 8 -10 5 6 3 -0 -2 6
19 22 26 11 22 11 18 14 20 9 18 5 3 6 3 12 -1 -14 5 3 0 3 12 -2 2 8 5 6 9 10 13 6 10 12 -3 61 -0 28 10 -1 0 5 8 5 5
-11 -5 3 15 15 14 12 12 10 11 10 23 4 15 12 11 3 3 11 -5 2 1 -2 0 -10 1 7 19 6 7 4 7 5 14 1 -4 26 13 17 23 16 4 8 6 2
1 20 -16 -24 -17 6 12 17 10 13 19 1 57 44 48 38 23 15 16 8 1 -4 4 17 11 7 -6 -5 -12 6 13 2 11 -0 11 -21 21 7 -16 2 10 7 6 6 -6
9 -20 1 27 43 18 -1 -3 4 3 21 25 34 -2 23 14 9 -15 21 42 4 11 0 -19 10 -5 13 12 6 5 14 10 -2 7 -7 27 15 13 24 11 11 10 1 -3 1
4 11 7 4 11 -9 5 9 6 5 8 4 5 25 -4 -7 4 1 0 22 33 4 5 8 11 -8 6 7 16 16 11 10 13 17 51 6 -14 49 18 -5 2 34 18 6 0
6 3 8 2 6 17 19 11 11 -10 8 30 -3 -15 9 6 11 15 11 -5 -3 28 30 28 17 20 14 -8 -12 -6 9 17 32 29 -3 42 17 -36 -17 33 27 30 28 7 -1
13 11 11 12 13 8 18 6 2 18 14 -29 -47 5 3 10 -1 17 11 12 16 7 2 -4 27 41 26 16 -6 11 -5 -48 7 6 6 42 15 -5 19 29 1 27 19 18 2
10 10 9 13 14 16 10 4 -40 25 37 -2 12 23 20 31 -7 5 18 14 21 -3 21 36 25 9 -20 23 43 3 7 1 -13 -35 25 9 -1 -27 -8 9 27 22 31 12 9
11 11 11 12 13 12 13 -1 4 -4 -29 -20 -7 -14 -8 -20 -9 0 25 -27 4 5 -10 33 35 23 13 -25 0 41 6 15 21 9 2 20 5 -23 -3 15 25 15 9 -0 1
13 14 13 20 19 13 1 -7 10 11 -13 -12 -3 2 8 8 8 17 -15 -3 15 9 -1 9 24 -19 17 20 17 47 37 -5 22 11 -13 13 13 25 40 28 26 23 13 11 20
17 14 8 20 13 20 1 3 10 7 -13 -8 8 26 4 5 5 1 -7 -16 -19 9 15 10 1 -3 26 19 9 3 66 35 -24 28 12 19 11 14 -5 9 15 12 7 23 15
17 18 6 13 11 10 7 14 16 11 6 9 11 -8 -5 -4 13 21 21 14 19 5 14 14 11 17 51 48 24 11 4 2 -1 26 42 -13 7 6 -4 -11 -8 17 4 6 1
7 5 10 0 2 10 -6 8 11 20 20 13 11 15 -1 8 3 8 12 10 3 10 -1 5 -1 -20 -35 -36 -40 -6 -5 -21 -17 29 20 -3 18 -11 -0 -30 -15 4 12 8 23
4 4 -1 10 32 14 3 2 6 8 -17 4 30 2 14 8 12 13 9 13 -1 -3 23 6 -6 21 -7 4 14 15 11 -3 33 -0 11 6 4 24 5 9 24 -15 32 16 14
8 8 2 -1 4 -1 -5 6 24 26 17 17 13 16 41 8 37 -5 16 -3 -6 1 -10 -5 20 38 23 -8 -5 23 11 23 -3 -21 10 -0 -4 10 12 29 -2 35 9 -6 6
10 11 8 9 10 13 -1 -2 7 3 6 3 1 3 5 6 9 8 -2 13 24 -2 5 8 -4 4 -6 -13 -11 51 2 -15 19 19 15 14 12 7 25 17 20 -8 18 12 24
Height
3147 3148 3147 3149 3148 3148 3148 3148 3148 3148 3147 3147 3147 3146 3145 3145 3145 3143 3142 3143 3142 3142 3142 3143 3144 3144 3145 3145 3147 3148 3147 3143 3145 3144 3140 3141 3139 3140 3142 3145 3146 3149 3152 3154 3155
3143 3144 3144 3144 3145 3145 3145 3145 3145 3144 3144 3144 3143 3143 3143 3141 3141 3141 3140 3139 3139 3139 3139 3139 3141 3141 3142 3143 3142 3146 3144 3143 3145 3144 3139 3138 3136 3137 3139 3143 3145 3148 3149 3151 3152
3139 3140 3141 3141 3141 3142 3142 3141 3141 3141 3141 3140 3139 3139 3140 3138 3139 3137 3136 3137 3137 3137 3137 3136 3137 3138 3138 3140 3140 3141 3139 3143 3143 3145 3144 3140 3138 3138 3139 3141 3143 3146 3146 3147 3148
3133 3135 3135 3136 3136 3136 3138 3138 3137 3137 3137 3135 3135 3135 3135 3135 3138 3135 3134 3134 3134 3134 3133 3133 3133 3133 3134 3135 3137 3138 3138 3140 3140 3140 3142 3140 3137 3134 3133 3139 3141 3144 3145 3144 3144
3128 3129 3130 3130 3131 3131 3132 3133 3134 3133 3132 3131 3130 3130 3131 3131 3133 3131 3129 3131 3130 3129 3130 3130 3130 3130 3130 3131 3132 3132 3133 3135 3136 3135 3137 3138 3135 3131 3131 3134 3139 3141 3141 3141 3141
3122 3123 3124 3125 3125 3126 3126 3127 3128 3128 3126 3126 3125 3125 3124 3125 3128 3126 3124 3125 3126 3124 3125 3126 3125 3125 3125 3127 3129 3127 3127 3128 3130 3131 3131 3134 3131 3130 3128 3130 3135 3137 3138 3139 3139
3115 3116 3118 3119 3119 3120 3121 3121 3121 3122 3122 3120 3120 3117 3118 3122 3122 3123 3122 3120 3121 3120 3120 3122 3120 3121 3123 3122 3125 3124 3122 3122 3124 3126 3127 3129 3129 3125 3126 3128 3131 3134 3134 3135 3135
3108 3110 3110 3111 3113 3113 3114 3115 3116 3115 3116 3114 3113 3111 3107 3117 3116 3116 3116 3115 3116 3115 3116 3117 3116 3118 3119 3120 3120 3120 3120 3118 3120 3122 3123 3125 3121 3122 3122 3126 3127 3130 3130 3130 3130
3100 3101 3103 3106 3107 3107 3108 3108 3109 3109 3110 3109 3109 3105 3105 3109 3110 3110 3111 3110 3110 3111 3112 3112 3112 3114 3115 3115 3116 3115 3115 3115 3114 3116 3118 3119 3116 3119 3119 3122 3122 3123 3123 3124 3124
3094 3095 3096 3098 3099 3100 3102 3102 3103 3102 3102 3103 3103 3103 3106 3105 3104 3104 3105 3107 3108 3108 3109 3109 3109 3109 3109 3110 3108 3111 3112 3111 3110 3111 3113 3112 3110 3111 3111 3114 3114 3116 3117 3118 3117
3087 3089 3090 3092 3092 3095 3097 3097 3101 3097 3095 3097 3098 3093 3099 3100 3100 3103 3103 3104 3105 3105 3105 3106 3106 3104 3105 3106 3107 3108 3107 3105 3106 3104 3106 3102 3101 3103 3106 3107 3108 3110 3112 3112 3112
3082 3084 3086 3089 3089 3091 3091 3090 3091 3088 3082 3088 3089 3087 3090 3096 3092 3096 3100 3101 3100 3099 3102 3103 3099 3101 3103 3104 3105 3105 3103 3100 3099 3099 3100 3097 3096 3097 3098 3100 3101 3102 3103 3104 3105
3078 3079 3081 3083 3086 3086 3087 3087 3086 3083 3075 3071 3079 3078 3085 3085 3084 3088 3094 3094 3094 3095 3096 3096 3095 3099 3101 3100 3100 3099 3099 3098 3097 3094 3092 3094 3093 3094 3091 3094 3096 3095 3097 3097 3097
3073 3075 3075 3075 3083 3081 3083 3084 3083 3081 3074 3064 3069 3067 3071 3073 3068 3079 3082 3086 3088 3086 3090 3086 3089 3092 3093 3094 3097 3093 3096 3095 3094 3092 3087 3090 3086 3087 3091 3085 3088 3090 3088 3087 3089
3064 3067 3071 3071 3076 3078 3080 3081 3082 3080 3078 3069 3065 3066 3066 3068 3072 3072 3074 3076 3075 3080 3087 3076 3082 3086 3087 3088 3091 3088 3091 3091 3090 3086 3084 3083 3083 3078 3083 3077 3077 3080 3083 3081 3081
3058 3060 3064 3066 3070 3072 3077 3077 3080 3083 3067 3063 3064 3065 3066 3066 3067 3069 3072 3072 3074 3076 3076 3073 3078 3079 3079 3082 3084 3086 3085 3085 3084 3082 3073 3079 3081 3064 3071 3071 3068 3070 3075 3074 3073
3049 3053 3057 3061 3065 3067 3071 3074 3079 3070 3063 3059 3061 3061 3061 3066 3066 3067 3069 3070 3071 3072 3070 3070 3066 3067 3073 3073 3076 3078 3079 3078 3079 3078 3065 3070 3073 3057 3063 3064 3064 3060 3067 3068 3067
3042 3046 3048 3053 3057 3061 3066 3070 3066 3057 3057 3056 3056 3054 3059 3062 3061 3062 3064 3065 3067 3068 3065 3063 3056 3059 3060 3059 3064 3066 3073 3068 3073 3071 3062 3064 3057 3055 3056 3057 3058 3057 3058 3060 3062
3034 3037 3041 3046 3049 3053 3059 3059 3048 3052 3056 3057 3054 3054 3055 3058 3060 3059 3059 3059 3063 3062 3059 3055 3046 3054 3055 3057 3059 3059 3056 3063 3062 3060 3062 3056 3055 3053 3050 3052 3052 3052 3052 3054 3057
3026 3029 3034 3039 3042 3045 3049 3042 3041 3047 3053 3054 3055 3055 3052 3053 3056 3057 3056 3056 3054 3055 3054 3050 3038 3043 3045 3048 3046 3048 3052 3055 3053 3054 3058 3045 3050 3046 3046 3047 3048 3047 3048 3048 3050
3020 3022 3028 3031 3034 3037 3035 3032 3035 3041 3048 3050 3050 3050 3050 3050 3053 3052 3051 3050 3049 3048 3049 3044 3044 3038 3040 3039 3040 3041 3038 3042 3042 3043 3044 3046 3040 3040 3041 3042 3043 3045 3046 3047 3047
3013 3016 3020 3024 3028 3027 3026 3028 3032 3034 3040 3042 3043 3044 3045 3048 3046 3047 3045 3048 3048 3047 3042 3042 3041 3030 3032 3034 3034 3037 3035 3034 3030 3035 3035 3036 3030 3036 3035 3036 3039 3041 3041 3043 3044
3007 3011 3016 3019 3020 3020 3023 3024 3026 3027 3031 3034 3036 3038 3041 3040 3042 3039 3039 3043 3044 3044 3042 3037 3034 3031 3021 3026 3029 3031 3032 3029 3029 3029 3026 3032 3024 3035 3033 3034 3036 3037 3037 3038 3040
3006 3007 3009 3012 3013 3016 3018 3019 3021 3023 3023 3027 3029 3032 3033 3032 3033 3030 3031 3034 3037 3039 3036 3033 3031 3033 3028 3027 3028 3025 3023 3025 3030 3028 3024 3020 3019 3019 3027 3028 3031 3031 3029 3029 3028
3001 3002 3004 3007 3009 3012 3016 3017 3017 3018 3020 3022 3023 3026 3026 3024 3022 3025 3026 3026 3027 3030 3030 3029 3022 3023 3018 3019 3021 3019 3018 3018 3019 3021 3020 3015 3018 3008 3017 3022 3024 3024 3023 3022 3021
2996 2998 3000 3003 3004 3007 3009 3010 3011 3012 3016 3014 3020 3020 3020 3017 3019 3015 3019 3020 3019 3021 3024 3020 3012 3011 3010 3015 3014 3012 3012 3011 3014 3014 3016 3012 3005 3006 3009 3013 3015 3017 3015 3018 3015
2991 2994 2995 2997 2998 3002 3002 3004 3006 3009 3009 3012 3013 3014 3013 3012 3013 3010 3011 3008 3008 3011 3012 3014 3012 3009 3005 3009 3007 3002 3000 3001 3001 3005 3003 3003 3001 3000 2999 3002 3005 3009 3007 3007 3007